,,,PA_Meas_PMT16A,,PR_Meas_QMR101_102,,RH_Meas_QMH101,,SR_Meas_QMS101,,TA_Meas_QMH101,,GenWind,,GenWind,
date,time,status,PA,status,PR,status,RH,status,SR,status,TA,status,DirAvg,status,SpdAvg,
2009-09-04, 00:00:04,VALID,999.296,VALID,0,VALID,76.9981,VALID,0,VALID,24.3647,VALID,133,VALID,1.42227,
2009-09-04, 00:01:04,VALID,999.249,VALID,0,VALID,77.1278,VALID,0,VALID,24.3062,VALID,139,VALID,1.59492,
2009-09-04, 00:02:04,VALID,999.256,VALID,0,VALID,77.3949,VALID,0,VALID,24.2458,VALID,132,VALID,2.13008,
2009-09-04, 00:03:04,VALID,999.261,VALID,0,VALID,77.4178,VALID,0,VALID,24.2067,VALID,125,VALID,2.77539,
2009-09-04, 00:04:04,VALID,999.246,VALID,0,VALID,77.494,VALID,0,VALID,24.2086,VALID,130,VALID,2.0918,
2009-09-04, 00:05:04,VALID,999.283,VALID,0,VALID,77.288,VALID,0,VALID,24.2086,VALID,136,VALID,2.27344,
2009-09-04, 00:06:04,VALID,999.269,VALID,0,VALID,77.372,VALID,0,VALID,24.2086,VALID,150,VALID,1.68242,
2009-09-04, 00:07:04,VALID,999.244,VALID,0,VALID,77.0439,VALID,0,VALID,24.2067,VALID,129,VALID,1.94648,
2009-09-04, 00:08:04,VALID,999.261,VALID,0,VALID,77.0439,VALID,0,VALID,24.2281,VALID,135,VALID,1.90195,
2009-09-04, 00:09:04,VALID,999.245,VALID,0,VALID,77.0363,VALID,0,VALID,24.2281,VALID,150,VALID,1.8293,
2009-09-04, 00:10:04,VALID,999.249,VALID,0,VALID,77.0286,VALID,0,VALID,24.2476,VALID,140,VALID,1.57734,
2009-09-04, 00:11:04,VALID,999.271,VALID,0,VALID,76.9829,VALID,0,VALID,24.2458,VALID,149,VALID,1.99922,
2009-09-04, 00:12:04,VALID,999.25,VALID,0,VALID,76.7921,VALID,0,VALID,24.2458,VALID,146,VALID,1.69609,
2009-09-04, 00:13:04,VALID,999.242,VALID,0,VALID,76.9523,VALID,0,VALID,24.2866,VALID,136,VALID,1.36797,
2009-09-04, 00:14:04,VALID,999.215,VALID,0,VALID,76.9218,VALID,0,VALID,24.2866,VALID,145,VALID,1.75312,
2009-09-04, 00:15:04,VALID,999.183,VALID,0,VALID,77.1049,VALID,0.112286,VALID,24.2476,VALID,141,VALID,1.36445,
2009-09-04, 00:16:04,VALID,999.193,VALID,0,VALID,77.1583,VALID,0,VALID,24.2086,VALID,137,VALID,1.60703,
2009-09-04, 00:17:04,VALID,999.161,VALID,0,VALID,77.372,VALID,0.112286,VALID,24.1677,VALID,140,VALID,1.30859,
2009-09-04, 00:18:04,VALID,999.17,VALID,0,VALID,77.5322,VALID,0,VALID,24.1696,VALID,138,VALID,1.45938,
2009-09-04, 00:19:04,VALID,999.174,VALID,0,VALID,77.639,VALID,0,VALID,24.1305,VALID,139,VALID,1.34844,
2009-09-04, 00:20:04,VALID,999.168,VALID,0,VALID,77.3186,VALID,0,VALID,24.1287,VALID,132,VALID,2.34922,
2009-09-04, 00:21:04,VALID,999.126,VALID,0,VALID,77.4483,VALID,0,VALID,24.1696,VALID,117,VALID,1.51875,
2009-09-04, 00:22:04,VALID,999.119,VALID,0,VALID,77.2194,VALID,0.112286,VALID,24.1696,VALID,122,VALID,1.5668,
2009-09-04, 00:23:04,VALID,999.098,VALID,0,VALID,77.288,VALID,0.112286,VALID,24.1482,VALID,132,VALID,1.45703,
2009-09-04, 00:24:04,VALID,999.086,VALID,0,VALID,77.2652,VALID,0,VALID,24.15,VALID,142,VALID,1.76289,
2009-09-04, 00:25:04,VALID,999.048,VALID,0,VALID,77.3491,VALID,0,VALID,24.1287,VALID,135,VALID,1.49727,
2009-09-04, 00:26:04,VALID,999.039,VALID,0,VALID,77.4635,VALID,0.112286,VALID,24.1092,VALID,124,VALID,1.52305,
2009-09-04, 00:27:04,VALID,999.05,VALID,0,VALID,77.7763,VALID,0.112286,VALID,24.0897,VALID,141,VALID,0.976172,
2009-09-04, 00:28:04,VALID,999.035,VALID,0,VALID,77.6695,VALID,0,VALID,24.0329,VALID,147,VALID,1.42305,
2009-09-04, 00:29:04,VALID,999.008,VALID,0,VALID,77.7611,VALID,0.112286,VALID,24.0329,VALID,157,VALID,1.52539,
2009-09-04, 00:30:04,VALID,999.003,VALID,0,VALID,77.2423,VALID,0.112286,VALID,24.072,VALID,135,VALID,1.31836,
2009-09-04, 00:31:04,VALID,999.002,VALID,0,VALID,77.1965,VALID,0,VALID,24.1305,VALID,160,VALID,1.12812,
2009-09-04, 00:32:04,VALID,999.019,VALID,0,VALID,77.166,VALID,0,VALID,24.1092,VALID,154,VALID,1.28672,
2009-09-04, 00:33:04,VALID,999.037,VALID,0,VALID,76.6319,VALID,0,VALID,24.1287,VALID,140,VALID,1.72383,
2009-09-04, 00:34:04,VALID,999.005,VALID,0,VALID,76.6319,VALID,0,VALID,24.1891,VALID,111,VALID,1.18281,
2009-09-04, 00:35:04,VALID,999.024,VALID,0,VALID,76.6929,VALID,0,VALID,24.2086,VALID,124,VALID,1.19258,
2009-09-04, 00:36:04,VALID,999.012,VALID,0,VALID,76.9676,VALID,0.112286,VALID,24.1872,VALID,127,VALID,1.08945,
2009-09-04, 00:37:04,VALID,999.008,VALID,0,VALID,77.2423,VALID,0,VALID,24.1305,VALID,135,VALID,1.12305,
2009-09-04, 00:38:04,VALID,998.993,VALID,0,VALID,77.4406,VALID,0,VALID,24.0915,VALID,127,VALID,1.24805,
2009-09-04, 00:39:04,VALID,998.993,VALID,0,VALID,77.5475,VALID,0,VALID,24.0506,VALID,133,VALID,1.18711,
2009-09-04, 00:40:04,VALID,998.968,VALID,0,VALID,77.4788,VALID,0,VALID,24.072,VALID,129,VALID,1.23398,
2009-09-04, 00:41:04,VALID,998.937,VALID,0,VALID,77.4635,VALID,0.112286,VALID,24.0506,VALID,122,VALID,1.08359,
2009-09-04, 00:42:04,VALID,998.941,VALID,0,VALID,77.7153,VALID,0.112286,VALID,24.0311,VALID,127,VALID,0.943359,
2009-09-04, 00:43:04,VALID,998.908,VALID,0,VALID,77.7611,VALID,0,VALID,24.0348,VALID,116,VALID,1.38711,
2009-09-04, 00:44:04,VALID,998.91,VALID,0,VALID,78.0358,VALID,0,VALID,23.9957,VALID,124,VALID,1.27617,
2009-09-04, 00:45:04,VALID,998.915,VALID,0,VALID,78.1349,VALID,0,VALID,23.9744,VALID,109,VALID,1.98867,
2009-09-04, 00:46:04,VALID,998.911,VALID,0,VALID,78.2875,VALID,0,VALID,23.9744,VALID,120,VALID,1.11172,
2009-09-04, 00:47:04,VALID,998.91,VALID,0,VALID,78.3638,VALID,0,VALID,23.9567,VALID,118,VALID,0.920313,
2009-09-04, 00:48:04,VALID,998.929,VALID,0,VALID,78.3943,VALID,0,VALID,23.9567,VALID,119,VALID,0.776563,
2009-09-04, 00:49:04,VALID,998.908,VALID,0,VALID,78.3486,VALID,0,VALID,23.8963,VALID,121,VALID,0.951563,
2009-09-04, 00:50:04,VALID,998.911,VALID,0,VALID,78.524,VALID,0,VALID,23.8768,VALID,120,VALID,0.687109,
2009-09-04, 00:51:04,VALID,998.901,VALID,0,VALID,78.7072,VALID,0,VALID,23.8573,VALID,115,VALID,0.848437,
2009-09-04, 00:52:04,VALID,998.885,VALID,0,VALID,79.0276,VALID,0,VALID,23.8378,VALID,109,VALID,0.986328,
2009-09-04, 00:53:04,VALID,998.889,VALID,0,VALID,79.3404,VALID,0,VALID,23.8201,VALID,143,VALID,0.661328,
2009-09-04, 00:54:04,VALID,998.887,VALID,0,VALID,79.5617,VALID,0,VALID,23.7811,VALID,147,VALID,0.824219,
2009-09-04, 00:55:04,VALID,998.866,VALID,0,VALID,79.4778,VALID,0,VALID,23.7616,VALID,144,VALID,0.698828,
2009-09-04, 00:56:04,VALID,998.86,VALID,0,VALID,79.6838,VALID,0,VALID,23.7207,VALID,128,VALID,0.738281,
2009-09-04, 00:57:04,VALID,998.843,VALID,0,VALID,79.7982,VALID,0,VALID,23.7225,VALID,128,VALID,0.883984,
2009-09-04, 00:58:04,VALID,998.838,VALID,0,VALID,79.5312,VALID,0,VALID,23.6799,VALID,132,VALID,0.811328,
2009-09-04, 00:59:04,VALID,998.869,VALID,0,VALID,79.3709,VALID,0,VALID,23.7012,VALID,141,VALID,1.10703,
2009-09-04, 01:00:04,VALID,998.836,VALID,0,VALID,79.5006,VALID,0,VALID,23.7189,VALID,139,VALID,0.889063,
2009-09-04, 01:01:04,VALID,998.834,VALID,0,VALID,79.3099,VALID,0,VALID,23.7402,VALID,136,VALID,0.801953,
2009-09-04, 01:02:04,VALID,998.823,VALID,0,VALID,79.0963,VALID,0.112286,VALID,23.7793,VALID,140,VALID,0.863672,
2009-09-04, 01:03:04,VALID,998.816,VALID,0,VALID,78.875,VALID,0,VALID,23.7988,VALID,140,VALID,0.808984,
2009-09-04, 01:04:04,VALID,998.829,VALID,0,VALID,78.6766,VALID,0,VALID,23.8573,VALID,146,VALID,0.973828,
2009-09-04, 01:05:04,VALID,998.809,VALID,0,VALID,78.7148,VALID,0.112286,VALID,23.8573,VALID,143,VALID,1.19961,
2009-09-04, 01:06:04,VALID,998.822,VALID,0,VALID,78.8216,VALID,0,VALID,23.836,VALID,137,VALID,1.11563,
2009-09-04, 01:07:04,VALID,998.833,VALID,0,VALID,79.0429,VALID,0,VALID,23.8165,VALID,136,VALID,1.2707,
2009-09-04, 01:08:04,VALID,998.837,VALID,0,VALID,78.8979,VALID,0,VALID,23.797,VALID,130,VALID,1.83281,
2009-09-04, 01:09:04,VALID,998.865,VALID,0,VALID,79.0123,VALID,0.112286,VALID,23.797,VALID,140,VALID,1.16562,
2009-09-04, 01:10:05,VALID,998.847,VALID,0,VALID,78.9589,VALID,0,VALID,23.7988,VALID,134,VALID,1.55273,
2009-09-04, 01:11:05,VALID,998.841,VALID,0,VALID,79.0123,VALID,0.112286,VALID,23.7579,VALID,139,VALID,1.20742,
2009-09-04, 01:12:05,VALID,998.79,VALID,0,VALID,78.6919,VALID,0.112286,VALID,23.7775,VALID,146,VALID,1.38906,
2009-09-04, 01:13:05,VALID,998.79,VALID,0,VALID,78.7072,VALID,0,VALID,23.8183,VALID,134,VALID,1.21992,
2009-09-04, 01:14:05,VALID,998.77,VALID,0,VALID,78.8826,VALID,0,VALID,23.8396,VALID,130,VALID,1.20664,
2009-09-04, 01:15:05,VALID,998.766,VALID,0,VALID,78.3562,VALID,0,VALID,23.8591,VALID,131,VALID,2.23281,
2009-09-04, 01:16:05,VALID,998.778,VALID,0,VALID,78.4249,VALID,0,VALID,23.8963,VALID,135,VALID,1.72734,
2009-09-04, 01:17:05,VALID,998.796,VALID,0,VALID,78.1807,VALID,0,VALID,23.9177,VALID,138,VALID,1.475,
2009-09-04, 01:18:05,VALID,998.78,VALID,0,VALID,78.3257,VALID,0,VALID,23.9159,VALID,132,VALID,1.18359,
2009-09-04, 01:19:05,VALID,998.795,VALID,0,VALID,78.4325,VALID,0,VALID,23.8982,VALID,123,VALID,0.948047,
2009-09-04, 01:20:05,VALID,998.806,VALID,0,VALID,78.3867,VALID,0,VALID,23.8573,VALID,140,VALID,1.60078,
2009-09-04, 01:21:05,VALID,998.805,VALID,0,VALID,78.2341,VALID,0,VALID,23.8786,VALID,139,VALID,1.24805,
2009-09-04, 01:22:05,VALID,998.802,VALID,0,VALID,78.3638,VALID,0,VALID,23.8573,VALID,140,VALID,1.08984,
2009-09-04, 01:23:05,VALID,998.813,VALID,0,VALID,78.5393,VALID,0,VALID,23.8786,VALID,130,VALID,1.27148,
2009-09-04, 01:24:05,VALID,998.812,VALID,0,VALID,78.4783,VALID,0,VALID,23.8591,VALID,125,VALID,1.40039,
2009-09-04, 01:25:05,VALID,998.795,VALID,0,VALID,78.5393,VALID,0,VALID,23.8183,VALID,127,VALID,1.22383,
2009-09-04, 01:26:05,VALID,998.782,VALID,0,VALID,78.6003,VALID,0,VALID,23.7988,VALID,130,VALID,1.11758,
2009-09-04, 01:27:05,VALID,998.791,VALID,0,VALID,78.7072,VALID,0,VALID,23.7793,VALID,128,VALID,0.674609,
2009-09-04, 01:28:05,VALID,998.749,VALID,0,VALID,78.6919,VALID,0,VALID,23.7793,VALID,130,VALID,0.916016,
2009-09-04, 01:29:05,VALID,998.736,VALID,0,VALID,78.6766,VALID,0,VALID,23.7402,VALID,119,VALID,1.28633,
2009-09-04, 01:30:05,VALID,998.728,VALID,0,VALID,78.6766,VALID,0,VALID,23.7616,VALID,119,VALID,1.49023,
2009-09-04, 01:31:05,VALID,998.707,VALID,0,VALID,78.7072,VALID,0,VALID,23.7402,VALID,125,VALID,1.17891,
2009-09-04, 01:32:05,VALID,998.684,VALID,0,VALID,78.9208,VALID,0,VALID,23.7207,VALID,136,VALID,1.00352,
2009-09-04, 01:33:05,VALID,998.669,VALID,0,VALID,79.1726,VALID,0,VALID,23.6817,VALID,140,VALID,0.998828,
2009-09-04, 01:34:05,VALID,998.698,VALID,0,VALID,79.3252,VALID,0,VALID,23.6622,VALID,136,VALID,1.09687,
2009-09-04, 01:35:05,VALID,998.701,VALID,0,VALID,79.4625,VALID,0,VALID,23.6445,VALID,142,VALID,1.15469,
2009-09-04, 01:36:05,VALID,998.689,VALID,0,VALID,79.6227,VALID,0,VALID,23.6036,VALID,147,VALID,1.21758,
2009-09-04, 01:37:05,VALID,998.649,VALID,0,VALID,79.4701,VALID,0,VALID,23.6054,VALID,129,VALID,1.30469,
2009-09-04, 01:38:05,VALID,998.613,VALID,0,VALID,79.2489,VALID,0,VALID,23.5841,VALID,126,VALID,1.45586,
2009-09-04, 01:39:05,VALID,998.622,VALID,0,VALID,79.0352,VALID,0,VALID,23.6232,VALID,133,VALID,1.30391,
2009-09-04, 01:40:05,VALID,998.592,VALID,0,VALID,78.9361,VALID,0,VALID,23.664,VALID,133,VALID,1.40977,
2009-09-04, 01:41:05,VALID,998.607,VALID,0,VALID,78.9971,VALID,0,VALID,23.6427,VALID,140,VALID,1.03125,
2009-09-04, 01:42:05,VALID,998.56,VALID,0,VALID,79.0123,VALID,0,VALID,23.6232,VALID,155,VALID,0.934375,
2009-09-04, 01:43:05,VALID,998.571,VALID,0,VALID,79.0047,VALID,0,VALID,23.6427,VALID,134,VALID,0.729297,
2009-09-04, 01:44:05,VALID,998.568,VALID,0,VALID,79.0123,VALID,0,VALID,23.6427,VALID,149,VALID,0.787109,
2009-09-04, 01:45:05,VALID,998.545,VALID,0,VALID,78.9818,VALID,0,VALID,23.6427,VALID,139,VALID,0.909375,
2009-09-04, 01:46:05,VALID,998.534,VALID,0,VALID,78.9208,VALID,0,VALID,23.6232,VALID,131,VALID,0.775781,
2009-09-04, 01:47:05,VALID,998.525,VALID,0,VALID,78.9742,VALID,0,VALID,23.6036,VALID,127,VALID,0.964453,
2009-09-04, 01:48:05,VALID,998.504,VALID,0,VALID,78.5317,VALID,0,VALID,23.6036,VALID,123,VALID,1.10703,
2009-09-04, 01:49:05,VALID,998.503,VALID,0,VALID,78.4249,VALID,0,VALID,23.6232,VALID,131,VALID,0.974609,
2009-09-04, 01:50:05,VALID,998.487,VALID,0,VALID,78.3867,VALID,0,VALID,23.6445,VALID,138,VALID,1.03281,
2009-09-04, 01:51:05,VALID,998.481,VALID,0,VALID,78.5317,VALID,0,VALID,23.6232,VALID,141,VALID,1.13828,
2009-09-04, 01:52:05,VALID,998.457,VALID,0,VALID,78.7758,VALID,0,VALID,23.6232,VALID,134,VALID,0.962891,
2009-09-04, 01:53:05,VALID,998.461,VALID,0,VALID,78.608,VALID,0,VALID,23.5841,VALID,134,VALID,1.10664,
2009-09-04, 01:54:05,VALID,998.441,VALID,0,VALID,78.6461,VALID,0,VALID,23.5646,VALID,160,VALID,1.26445,
2009-09-04, 01:55:05,VALID,998.457,VALID,0,VALID,78.318,VALID,0,VALID,23.5841,VALID,154,VALID,1.51641,
2009-09-04, 01:56:05,VALID,998.446,VALID,0,VALID,78.1273,VALID,0,VALID,23.6232,VALID,140,VALID,1.25625,
2009-09-04, 01:57:05,VALID,998.442,VALID,0,VALID,77.9823,VALID,0,VALID,23.6232,VALID,146,VALID,1.1375,
2009-09-04, 01:58:05,VALID,998.45,VALID,0,VALID,77.3643,VALID,0,VALID,23.625,VALID,136,VALID,1.63867,
2009-09-04, 01:59:05,VALID,998.447,VALID,0,VALID,76.6014,VALID,0,VALID,23.6622,VALID,144,VALID,1.62188,
2009-09-04, 02:00:05,VALID,998.447,VALID,0,VALID,75.0678,VALID,0,VALID,23.7597,VALID,139,VALID,1.71602,
2009-09-04, 02:01:05,VALID,998.486,VALID,0,VALID,74.6863,VALID,0,VALID,23.8573,VALID,140,VALID,1.49414,
2009-09-04, 02:02:05,VALID,998.493,VALID,0,VALID,74.7321,VALID,0,VALID,23.8963,VALID,128,VALID,1.5543,
2009-09-04, 02:03:05,VALID,998.52,VALID,0,VALID,74.7169,VALID,0,VALID,23.9354,VALID,130,VALID,1.34336,
2009-09-04, 02:04:05,VALID,998.496,VALID,0,VALID,74.0989,VALID,0,VALID,23.9549,VALID,136,VALID,1.18789,
2009-09-04, 02:05:05,VALID,998.466,VALID,0,VALID,74.2057,VALID,0,VALID,23.9354,VALID,130,VALID,1.27773,
2009-09-04, 02:06:05,VALID,998.44,VALID,0,VALID,74.076,VALID,0,VALID,23.9354,VALID,144,VALID,1.25273,
2009-09-04, 02:07:05,VALID,998.411,VALID,0,VALID,74.1218,VALID,0,VALID,23.9762,VALID,132,VALID,1.32461,
2009-09-04, 02:08:05,VALID,998.376,VALID,0,VALID,73.9081,VALID,0,VALID,23.9354,VALID,129,VALID,1.50195,
2009-09-04, 02:09:05,VALID,998.355,VALID,0,VALID,72.428,VALID,0,VALID,23.9354,VALID,149,VALID,2.17422,
2009-09-04, 02:10:05,VALID,998.354,VALID,0,VALID,71.6192,VALID,0,VALID,24.0915,VALID,140,VALID,1.71094,
2009-09-04, 02:11:05,VALID,998.337,VALID,0,VALID,72.0465,VALID,0,VALID,24.1891,VALID,129,VALID,1.72187,
2009-09-04, 02:12:05,VALID,998.315,VALID,0,VALID,72.3517,VALID,0,VALID,24.2299,VALID,122,VALID,1.50312,
2009-09-04, 02:13:05,VALID,998.302,VALID,0,VALID,72.3669,VALID,0,VALID,24.1891,VALID,122,VALID,1.41914,
2009-09-04, 02:14:05,VALID,998.29,VALID,0,VALID,72.6111,VALID,0,VALID,24.15,VALID,116,VALID,1.51172,
2009-09-04, 02:15:05,VALID,998.262,VALID,0,VALID,71.1004,VALID,0,VALID,24.0915,VALID,121,VALID,1.94375,
2009-09-04, 02:16:05,VALID,998.265,VALID,0,VALID,71.6345,VALID,0,VALID,24.15,VALID,113,VALID,1.46328,
2009-09-04, 02:17:05,VALID,998.255,VALID,0,VALID,70.0094,VALID,0,VALID,24.2086,VALID,150,VALID,2.26016,
2009-09-04, 02:18:05,VALID,998.286,VALID,0,VALID,69.8873,VALID,0,VALID,24.347,VALID,127,VALID,1.60195,
2009-09-04, 02:19:05,VALID,998.273,VALID,0,VALID,70.2459,VALID,0,VALID,24.3257,VALID,129,VALID,1.60898,
2009-09-04, 02:20:05,VALID,998.303,VALID,0,VALID,70.5969,VALID,0,VALID,24.3275,VALID,111,VALID,1.35977,
2009-09-04, 02:21:05,VALID,998.302,VALID,0,VALID,69.9484,VALID,0,VALID,24.2866,VALID,126,VALID,1.59414,
2009-09-04, 02:22:05,VALID,998.274,VALID,0,VALID,69.2846,VALID,0,VALID,24.3062,VALID,133,VALID,1.84492,
2009-09-04, 02:23:05,VALID,998.244,VALID,0,VALID,69.5974,VALID,0,VALID,24.3647,VALID,129,VALID,1.14727,
2009-09-04, 02:24:05,VALID,998.243,VALID,0,VALID,67.9112,VALID,0,VALID,24.3647,VALID,149,VALID,2.24102,
2009-09-04, 02:25:05,VALID,998.212,VALID,0,VALID,68.4758,VALID,0,VALID,24.5013,VALID,135,VALID,1.46914,
2009-09-04, 02:26:05,VALID,998.206,VALID,0,VALID,66.3853,VALID,0,VALID,24.5813,VALID,158,VALID,2.98242,
2009-09-04, 02:27:05,VALID,998.183,VALID,0,VALID,65.0959,VALID,0,VALID,24.716,VALID,140,VALID,1.54336,
2009-09-04, 02:28:05,VALID,998.211,VALID,0,VALID,66.8507,VALID,0,VALID,24.7746,VALID,126,VALID,1.6,
2009-09-04, 02:29:05,VALID,998.227,VALID,0,VALID,66.2175,VALID,0,VALID,24.716,VALID,153,VALID,2.06523,
2009-09-04, 02:30:05,VALID,998.201,VALID,0,VALID,66.6295,VALID,0,VALID,24.7746,VALID,122,VALID,1.71406,
2009-09-04, 02:31:05,VALID,998.18,VALID,0,VALID,66.8889,VALID,0,VALID,24.757,VALID,113,VALID,1.87461,
2009-09-04, 02:32:05,VALID,998.185,VALID,0,VALID,69.4372,VALID,0,VALID,24.5989,VALID,92,VALID,1.8918,
2009-09-04, 02:33:05,VALID,998.182,VALID,0,VALID,68.7047,VALID,0,VALID,24.5013,VALID,106,VALID,1.73711,
2009-09-04, 02:34:05,VALID,998.183,VALID,0,VALID,70.1544,VALID,0,VALID,24.4233,VALID,105,VALID,1.20938,
2009-09-04, 02:35:05,VALID,998.203,VALID,0,VALID,71.4209,VALID,0,VALID,24.3257,VALID,108,VALID,1.54414,
2009-09-04, 02:36:05,VALID,998.168,VALID,0,VALID,72.5501,VALID,0,VALID,24.1696,VALID,119,VALID,1.31719,
2009-09-04, 02:37:05,VALID,998.169,VALID,0,VALID,71.0165,VALID,0,VALID,24.0329,VALID,105,VALID,1.62148,
2009-09-04, 02:38:05,VALID,998.179,VALID,0,VALID,71.1462,VALID,0,VALID,24.0543,VALID,114,VALID,1.53086,
2009-09-04, 02:39:05,VALID,998.173,VALID,0,VALID,71.1386,VALID,0,VALID,24.0525,VALID,117,VALID,1.49102,
2009-09-04, 02:40:05,VALID,998.17,VALID,0,VALID,72.7332,VALID,0,VALID,24.0153,VALID,99,VALID,1.775,
2009-09-04, 02:41:05,VALID,998.187,VALID,0,VALID,73.7555,VALID,0,VALID,23.8982,VALID,100,VALID,1.65156,
2009-09-04, 02:42:05,VALID,998.184,VALID,0,VALID,74.2667,VALID,0,VALID,23.742,VALID,98,VALID,2.17383,
2009-09-04, 02:43:05,VALID,998.16,VALID,0,VALID,74.1828,VALID,0,VALID,23.6427,VALID,103,VALID,1.93789,
2009-09-04, 02:44:05,VALID,998.186,VALID,0,VALID,74.5261,VALID,0,VALID,23.6036,VALID,111,VALID,1.81719,
2009-09-04, 02:45:05,VALID,998.157,VALID,0,VALID,74.5261,VALID,0,VALID,23.5646,VALID,113,VALID,1.27031,
2009-09-04, 02:46:05,VALID,998.138,VALID,0,VALID,74.5643,VALID,0,VALID,23.5646,VALID,125,VALID,1.63477,
2009-09-04, 02:47:05,VALID,998.13,VALID,0,VALID,73.8166,VALID,0,VALID,23.5841,VALID,122,VALID,1.49102,
2009-09-04, 02:48:05,VALID,998.14,VALID,0,VALID,73.0612,VALID,0,VALID,23.6036,VALID,124,VALID,2.13242,
2009-09-04, 02:49:05,VALID,998.091,VALID,0,VALID,71.9549,VALID,0,VALID,23.6622,VALID,137,VALID,1.33398,
2009-09-04, 02:50:05,VALID,998.126,VALID,0,VALID,71.9626,VALID,0,VALID,23.7811,VALID,121,VALID,1.83633,
2009-09-04, 02:51:05,VALID,998.105,VALID,0,VALID,71.2149,VALID,0,VALID,23.8786,VALID,120,VALID,1.70703,
2009-09-04, 02:52:05,VALID,998.11,VALID,0,VALID,70.1544,VALID,0,VALID,23.8963,VALID,132,VALID,2.43086,
2009-09-04, 02:53:05,VALID,998.119,VALID,0,VALID,69.1625,VALID,0,VALID,24.0329,VALID,126,VALID,2.15586,
2009-09-04, 02:54:05,VALID,998.125,VALID,0,VALID,68.8726,VALID,0,VALID,24.1696,VALID,128,VALID,1.87344,
2009-09-04, 02:55:05,VALID,998.142,VALID,0,VALID,68.4453,VALID,0,VALID,24.2671,VALID,130,VALID,2.23633,
2009-09-04, 02:56:05,VALID,998.103,VALID,0,VALID,68.7124,VALID,0,VALID,24.3257,VALID,130,VALID,1.91758,
2009-09-04, 02:57:05,VALID,998.158,VALID,0,VALID,69.2235,VALID,0,VALID,24.2866,VALID,136,VALID,1.47695,
2009-09-04, 02:58:05,VALID,998.154,VALID,0,VALID,68.8802,VALID,0,VALID,24.2281,VALID,126,VALID,2.19141,
2009-09-04, 02:59:05,VALID,998.18,VALID,0,VALID,68.0028,VALID,0,VALID,24.2281,VALID,135,VALID,3.04727,
2009-09-04, 03:00:05,VALID,998.175,VALID,0,VALID,68.3614,VALID,0,VALID,24.2866,VALID,132,VALID,2.57734,
2009-09-04, 03:01:05,VALID,998.186,VALID,0,VALID,68.7124,VALID,0,VALID,24.3062,VALID,121,VALID,2.24531,
2009-09-04, 03:02:05,VALID,998.155,VALID,0,VALID,68.7276,VALID,0,VALID,24.2866,VALID,126,VALID,2.41836,
2009-09-04, 03:03:05,VALID,998.171,VALID,0,VALID,68.926,VALID,0,VALID,24.2885,VALID,134,VALID,2.21523,
2009-09-04, 03:04:05,VALID,998.181,VALID,0,VALID,68.9565,VALID,0,VALID,24.2281,VALID,123,VALID,2.73359,
2009-09-04, 03:05:05,VALID,998.139,VALID,0,VALID,67.751,VALID,0,VALID,24.347,VALID,129,VALID,3.22695,
2009-09-04, 03:06:05,VALID,998.142,VALID,0,VALID,67.9952,VALID,0,VALID,24.4056,VALID,133,VALID,2.46875,
2009-09-04, 03:07:05,VALID,998.154,VALID,0,VALID,68.6284,VALID,0,VALID,24.4056,VALID,133,VALID,2.77539,
2009-09-04, 03:08:05,VALID,998.166,VALID,0,VALID,68.9412,VALID,0,VALID,24.3452,VALID,141,VALID,2.2957,
2009-09-04, 03:09:05,VALID,998.134,VALID,0,VALID,69.0862,VALID,0,VALID,24.3275,VALID,149,VALID,1.95859,
2009-09-04, 03:10:05,VALID,998.128,VALID,0,VALID,67.8884,VALID,0,VALID,24.2866,VALID,149,VALID,2.44062,
2009-09-04, 03:11:05,VALID,998.145,VALID,0,VALID,68.1707,VALID,0,VALID,24.3647,VALID,132,VALID,2.41055,
2009-09-04, 03:12:05,VALID,998.155,VALID,0,VALID,67.9875,VALID,0,VALID,24.4037,VALID,133,VALID,2.46641,
2009-09-04, 03:13:05,VALID,998.138,VALID,0,VALID,68.6971,VALID,0,VALID,24.3647,VALID,136,VALID,1.89375,
2009-09-04, 03:14:05,VALID,998.132,VALID,0,VALID,68.7581,VALID,0,VALID,24.3275,VALID,159,VALID,2.52148,
2009-09-04, 03:15:05,VALID,998.124,VALID,0,VALID,69.0481,VALID,0,VALID,24.3062,VALID,145,VALID,2.15195,
2009-09-04, 03:16:05,VALID,998.09,VALID,0,VALID,69.4448,VALID,0,VALID,24.269,VALID,139,VALID,2.17656,
2009-09-04, 03:17:05,VALID,998.086,VALID,0,VALID,69.5211,VALID,0,VALID,24.2086,VALID,142,VALID,3.02383,
2009-09-04, 03:18:05,VALID,998.079,VALID,0,VALID,70.1544,VALID,0,VALID,24.15,VALID,137,VALID,2.26016,
2009-09-04, 03:19:05,VALID,998.077,VALID,0,VALID,69.544,VALID,0,VALID,24.072,VALID,139,VALID,2.30664,
2009-09-04, 03:20:05,VALID,998.105,VALID,0,VALID,70.1696,VALID,0,VALID,24.0738,VALID,126,VALID,1.725,
2009-09-04, 03:21:05,VALID,998.082,VALID,0,VALID,69.6966,VALID,0,VALID,24.111,VALID,129,VALID,2.04453,
2009-09-04, 03:22:05,VALID,998.122,VALID,0,VALID,69.5516,VALID,0,VALID,24.1714,VALID,130,VALID,2.43594,
2009-09-04, 03:23:05,VALID,998.137,VALID,0,VALID,69.4677,VALID,0,VALID,24.1714,VALID,129,VALID,2.06133,
2009-09-04, 03:24:05,VALID,998.17,VALID,0,VALID,69.7881,VALID,0,VALID,24.1519,VALID,131,VALID,2.01094,
2009-09-04, 03:25:05,VALID,998.151,VALID,0,VALID,70.2764,VALID,0,VALID,24.1128,VALID,116,VALID,1.48984,
2009-09-04, 03:26:05,VALID,998.143,VALID,0,VALID,70.4595,VALID,0,VALID,24.0348,VALID,131,VALID,1.81406,
2009-09-04, 03:27:05,VALID,998.135,VALID,0,VALID,70.9173,VALID,0,VALID,23.9372,VALID,102,VALID,2.04648,
2009-09-04, 03:28:05,VALID,998.119,VALID,0,VALID,71.0241,VALID,0,VALID,23.8591,VALID,123,VALID,1.87969,
2009-09-04, 03:29:05,VALID,998.156,VALID,0,VALID,71.5048,VALID,0,VALID,23.8006,VALID,137,VALID,2.08711,
2009-09-04, 03:30:05,VALID,998.138,VALID,0,VALID,71.8787,VALID,0,VALID,23.7616,VALID,122,VALID,1.40508,
2009-09-04, 03:31:05,VALID,998.126,VALID,0,VALID,71.2759,VALID,0,VALID,23.7012,VALID,118,VALID,2.70742,
2009-09-04, 03:32:05,VALID,998.175,VALID,0,VALID,71.192,VALID,0,VALID,23.7597,VALID,130,VALID,2.6043,
2009-09-04, 03:33:05,VALID,998.128,VALID,0,VALID,70.8944,VALID,0,VALID,23.8201,VALID,113,VALID,2.28711,
2009-09-04, 03:34:05,VALID,998.149,VALID,0,VALID,71.2835,VALID,0,VALID,23.8591,VALID,121,VALID,1.80664,
2009-09-04, 03:35:05,VALID,998.177,VALID,0,VALID,71.5735,VALID,0,VALID,23.8006,VALID,118,VALID,1.92188,
2009-09-04, 03:36:05,VALID,998.16,VALID,0,VALID,71.5735,VALID,0,VALID,23.7616,VALID,117,VALID,2.45625,
2009-09-04, 03:37:05,VALID,998.153,VALID,0,VALID,71.7871,VALID,0,VALID,23.7207,VALID,115,VALID,1.68008,
2009-09-04, 03:38:05,VALID,998.185,VALID,0,VALID,71.8252,VALID,0,VALID,23.703,VALID,124,VALID,1.67539,
2009-09-04, 03:39:05,VALID,998.192,VALID,0,VALID,71.192,VALID,0,VALID,23.6835,VALID,126,VALID,1.93828,
2009-09-04, 03:40:05,VALID,998.213,VALID,0,VALID,71.459,VALID,0,VALID,23.7225,VALID,122,VALID,1.20742,
2009-09-04, 03:41:05,VALID,998.238,VALID,0,VALID,71.9092,VALID,0,VALID,23.7225,VALID,117,VALID,1.35977,
2009-09-04, 03:42:05,VALID,998.255,VALID,0,VALID,72.2067,VALID,0,VALID,23.6445,VALID,114,VALID,1.54414,
2009-09-04, 03:43:05,VALID,998.249,VALID,0,VALID,72.7332,VALID,0,VALID,23.5664,VALID,113,VALID,1.2293,
2009-09-04, 03:44:05,VALID,998.228,VALID,0,VALID,73.4198,VALID,0,VALID,23.4884,VALID,108,VALID,1.17305,
2009-09-04, 03:45:05,VALID,998.227,VALID,0,VALID,73.9615,VALID,0,VALID,23.3908,VALID,96,VALID,1.21602,